RH
29 31 41 43 43 44 44 43 42 41 42 42 42 42 43 45 44 47 48 44 41 38 35 31 27 17 12 12 9 7 7 8 10 15 15 15 12 11 14 11 10 11 11 14 16 20 28
32 32 30 38 44 45 45 45 44 44 44 44 43 41 41 46 48 50 52 49 46 41 39 37 33 28 22 17 14 13 10 9 8 8 14 16 14 13 13 14 14 14 13 12 14 17 21
30 31 32 32 34 42 44 45 45 44 45 43 41 41 41 46 50 51 53 54 53 51 45 39 34 31 28 20 16 10 9 8 9 9 10 11 15 16 16 18 19 19 20 19 16 18 26
34 33 32 32 33 34 36 40 41 41 42 41 40 43 47 50 53 56 55 56 57 54 52 50 46 43 31 24 16 12 9 8 7 7 8 11 13 15 18 22 23 24 25 25 25 25 28
41 38 35 34 36 35 34 34 35 37 38 42 52 56 56 58 61 62 61 61 57 54 54 52 50 39 30 22 16 10 11 12 7 4 4 7 12 17 21 25 32 32 33 29 33 32 31
50 46 42 38 40 40 37 35 35 37 46 60 61 58 59 62 63 63 62 58 53 52 54 51 49 46 43 40 38 35 27 16 8 4 3 6 10 12 18 25 27 25 27 26 25 24 22
57 55 49 44 45 44 40 38 39 46 60 66 65 60 56 57 60 61 61 58 57 53 54 53 52 52 51 48 46 38 27 16 8 5 4 6 9 11 20 21 27 31 30 22 18 24 25
65 62 58 52 52 52 48 43 45 54 66 70 70 66 61 58 60 63 62 62 59 61 59 56 53 43 33 32 35 32 27 18 12 6 6 7 6 12 14 16 15 19 25 23 23 25 25
81 77 68 60 60 57 52 54 49 61 73 76 73 70 62 61 67 64 64 61 59 60 62 54 45 31 25 20 18 19 17 13 9 7 6 6 8 8 9 9 12 16 26 31 34 29 21
99 90 83 74 61 61 56 53 61 78 80 77 79 77 67 66 62 66 63 59 55 58 55 50 38 30 30 20 20 15 10 10 10 9 8 7 7 7 8 10 12 14 16 15 12 11 12
100 95 91 91 94 58 61 63 84 86 80 78 85 80 72 68 65 64 64 60 56 60 68 46 40 43 50 49 48 37 34 13 9 8 8 9 9 10 10 11 12 13 11 10 9 9 12
99 97 96 98 93 93 71 77 99 97 84 83 86 81 77 75 72 69 66 64 60 56 61 50 40 38 58 62 58 57 44 38 27 26 19 16 16 17 14 14 14 14 15 12 12 13 37
99 98 95 99 96 98 97 96 99 100 97 89 90 88 78 76 76 74 73 70 68 59 51 47 42 62 68 65 58 48 52 58 51 44 31 36 37 30 26 24 28 26 18 14 38 46 47
99 100 99 100 100 99 98 100 100 100 100 99 92 88 78 71 78 80 80 77 74 67 65 61 71 74 66 55 59 63 65 66 65 60 53 36 30 40 36 37 31 25 22 15 39 77 55
99 100 100 100 100 100 99 100 100 100 100 100 97 92 80 68 83 85 79 82 74 73 70 77 78 73 66 68 68 69 70 66 62 60 52 42 33 42 51 46 41 33 31 24 18 23 54
99 100 100 100 99 100 100 100 100 100 100 100 100 90 63 61 90 87 87 84 81 82 85 87 84 72 74 75 78 76 69 66 66 67 68 52 62 61 59 56 50 44 36 31 25 67 93
100 100 100 100 100 100 100 100 100 100 100 99 100 90 69 62 89 91 87 86 88 84 89 88 83 83 81 80 84 84 73 72 75 78 80 80 71 62 68 66 66 61 55 46 34 33 92
100 99 100 100 100 100 100 100 100 100 99 100 100 94 76 78 91 96 92 94 88 87 91 91 88 84 76 78 82 78 78 77 78 81 84 83 82 78 71 69 68 67 61 52 40 45 38
99 99 100 99 100 99 99 100 99 99 100 99 99 96 75 69 95 99 98 86 76 84 87 94 88 81 81 85 90 82 79 75 79 84 88 82 79 83 75 65 59 60 58 55 54 46 49
99 99 99 99 99 99 99 99 98 97 99 99 99 98 79 71 99 89 92 98 94 80 99 98 98 98 94 96 91 90 85 84 80 94 100 100 95 85 81 71 77 83 84 84 91 95 77
97 98 99 98 99 99 96 98 92 92 89 99 98 99 84 77 95 89 73 81 72 88 95 91 92 98 98 100 90 90 85 78 83 88 90 99 95 82 78 76 78 76 85 86 82 76 95
91 90 76 57 57 75 88 90 31 51 100 100 100 99 69 96 91 76 85 80 76 66 94 100 96 100 100 99 99 98 89 89 92 84 90 95 95 86 84 78 75 69 74 66 65 65 83
67 71 51 34 8 4 4 3 3 28 72 77 79 33 23 81 95 91 76 86 86 70 96 100 100 100 98 91 86 71 95 95 92 96 100 100 100 99 91 79 78 75 44 44 46 49 50
20 17 3 3 4 2 2 2 2 3 3 4 10 56 42 100 89 77 95 89 81 100 99 100 91 84 58 62 68 81 83 85 87 88 99 100 100 97 93 87 98 49 50 51 56 60 59
3 3 3 3 2 2 2 2 2 2 3 4 31 20 90 100 86 99 99 68 100 100 90 80 80 65 71 78 90 95 82 76 67 68 72 79 100 97 92 95 65 60 50 49 52 55 57
3 3 2 2 2 2 2 2 2 2 6 24 77 60 88 86 99 79 52 96 100 71 45 42 50 76 83 94 98 100 86 73 77 73 75 76 87 100 100 97 96 55 56 61 65 65 56
4 3 2 2 2 2 2 2 2 5 15 42 59 97 61 95 62 65 59 37 37 49 51 56 54 70 81 97 100 100 99 91 87 84 75 80 93 96 97 96 73 63 59 61 76 59 68
5 3 2 2 2 2 2 3 4 4 6 8 19 34 42 39 52 38 34 30 40 64 75 69 88 85 76 94 98 98 93 91 91 85 80 80 80 92 97 98 90 56 63 76 77 89 96
4 3 2 2 2 2 2 2 3 4 6 7 11 16 68 69 64 39 21 25 47 40 61 84 87 83 94 93 92 94 91 95 93 95 88 94 86 78 86 71 70 74 82 89 96 99 100
Wind_Speed
6 6 6 6 5 4 3 3 3 2 2 3 3 5 6 8 9 10 10 8 7 7 7 6 6 5 5 6 6 7 8 9 10 10 13 15 15 16 17 18 20 21 23 21 22 22 23
8 8 8 7 7 6 6 5 5 4 3 5 5 5 7 7 8 9 9 9 10 9 8 7 6 6 6 6 8 9 8 9 10 11 12 14 15 16 16 18 16 18 20 23 22 22 23
10 9 9 8 8 8 8 7 6 6 5 5 6 7 7 8 8 9 10 10 11 10 10 9 8 7 8 7 6 6 6 5 7 10 12 14 14 15 15 14 17 18 19 19 22 23 24
12 11 10 9 9 9 9 8 8 7 6 6 6 7 8 9 10 10 11 11 12 11 11 11 12 12 9 6 6 6 5 5 6 7 9 11 13 14 15 15 14 14 17 21 21 22 26
15 14 12 11 10 10 10 9 9 8 7 7 7 8 9 10 11 11 12 13 13 13 13 12 13 8 5 5 5 5 6 6 7 8 8 9 11 12 13 14 14 14 14 15 17 21 24
17 16 14 14 13 13 12 12 11 10 9 8 8 10 11 11 12 13 13 14 15 15 13 14 9 9 8 10 11 13 12 10 9 10 10 10 12 13 14 14 9 8 12 16 17 18 20
20 18 17 16 15 14 14 14 13 12 11 10 10 10 10 10 12 13 14 15 16 15 14 13 15 15 14 13 13 11 11 10 9 9 10 10 12 12 11 13 17 19 18 19 18 20 24
22 20 19 18 18 16 16 16 16 15 13 12 11 10 11 11 12 12 13 15 15 15 16 15 13 9 8 8 7 7 7 7 7 7 8 9 10 12 13 14 15 17 20 23 23 20 23
26 24 22 21 20 20 18 19 18 17 16 14 13 12 12 11 11 12 13 13 13 14 14 9 6 5 8 7 5 3 4 5 6 6 7 8 7 6 9 12 14 17 20 23 24 27 28
29 27 26 24 24 23 22 21 21 20 19 16 15 13 12 12 12 11 11 12 13 13 8 4 3 3 8 5 7 7 6 4 4 5 6 7 9 11 10 11 12 17 16 18 20 18 9
25 29 30 27 24 27 26 24 24 23 21 18 16 14 13 12 11 10 11 11 11 9 3 2 2 3 7 8 7 6 6 5 3 4 5 6 8 9 12 13 13 14 18 19 21 22 22
30 27 29 29 25 27 26 28 26 24 21 18 15 14 13 13 12 12 11 11 9 2 3 2 1 2 7 9 8 8 6 6 7 8 8 10 12 13 11 14 14 16 18 21 21 17 5
32 34 33 33 29 27 29 31 30 25 22 18 16 14 12 12 12 11 10 9 4 3 3 1 2 7 12 11 7 4 5 7 7 6 5 9 12 13 14 13 13 11 11 6 4 1 5
37 30 29 27 28 33 33 33 33 26 25 22 17 14 13 11 10 8 6 6 5 3 4 6 7 13 8 3 3 8 9 8 8 7 8 4 4 5 6 7 7 11 7 3 5 3 5
32 35 39 34 36 29 31 32 32 30 30 21 17 15 14 12 11 9 6 4 3 3 5 6 12 9 3 3 9 6 9 5 4 4 2 5 3 6 13 14 11 5 4 6 8 12 5
36 35 42 36 30 31 31 28 30 24 25 21 18 16 14 14 12 10 9 8 7 7 8 11 6 5 4 9 8 6 6 3 5 6 7 5 7 9 11 12 13 14 10 5 4 4 6
35 37 38 34 31 37 33 27 28 26 25 22 24 18 13 14 15 13 13 10 8 8 9 8 5 7 9 10 6 7 3 8 8 5 9 12 8 8 12 11 15 15 14 10 7 7 4
39 40 38 40 33 31 27 27 27 25 20 26 26 16 14 15 17 16 15 13 11 9 10 13 10 10 8 7 9 7 6 5 10 12 13 13 11 11 15 18 18 20 19 17 9 6 11
29 37 41 40 39 37 22 29 33 29 24 22 24 14 15 19 20 19 16 12 9 9 13 12 10 9 10 11 6 6 9 10 14 14 8 10 7 10 8 9 10 15 16 14 18 27 28
32 31 37 35 32 30 28 26 21 13 19 29 20 17 19 21 25 19 15 18 16 15 14 15 16 16 15 15 13 10 14 16 19 18 18 20 21 25 24 30 32 31 27 22 19 18 33
16 16 19 20 26 27 25 25 22 21 26 27 31 28 26 17 22 25 20 17 13 12 16 15 15 17 17 15 17 20 21 18 16 16 17 21 28 32 35 34 36 41 40 38 40 48 33
24 20 23 27 28 31 33 32 30 28 28 36 35 33 28 27 26 21 19 20 18 16 18 20 18 17 18 20 20 25 24 20 19 22 20 23 27 31 41 35 33 41 36 36 40 44 48
16 18 18 25 26 26 26 26 28 32 41 45 43 36 31 29 31 28 26 21 23 20 18 20 19 20 23 23 25 20 19 22 28 28 27 28 28 24 22 25 29 32 26 17 21 24 27
31 31 29 27 24 22 25 26 28 30 34 35 35 31 29 28 27 23 23 23 19 17 20 22 23 22 21 20 18 20 23 27 29 30 30 31 24 19 20 27 5 15 15 28 35 35 30
29 27 25 24 23 22 21 23 25 28 29 28 28 27 30 26 23 25 26 22 19 21 24 21 21 18 17 17 21 19 20 23 19 19 21 24 24 15 8 12 35 35 21 20 25 33 30
27 25 23 23 23 20 20 22 25 26 26 23 25 29 32 25 27 26 21 21 23 23 20 21 18 17 17 17 16 12 7 12 9 8 12 16 22 26 14 8 8 27 32 35 29 36 15
28 26 24 22 21 19 19 21 22 23 25 28 30 24 23 31 28 19 21 22 20 21 22 18 14 17 18 21 21 19 22 24 12 11 10 16 20 32 33 18 24 23 22 25 13 23 19
28 27 25 23 21 21 19 19 19 21 23 24 24 24 23 25 23 20 21 21 20 22 21 17 15 18 21 20 18 20 18 18 18 23 20 21 14 16 19 14 18 27 25 24 32 37 39
26 26 26 23 22 20 19 18 18 18 19 19 21 21 22 24 22 21 22 22 23 24 22 23 24 21 14 12 14 14 20 27 30 32 32 27 30 24 22 27 33 40 44 46 46 45 44
Wind_Direction
205 205 207 209 205 208 212 202 229 251 284 307 333 343 353 356 3 5 6 1 354 345 337 338 335 329 318 300 283 278 264 257 252 247 241 237 235 235 232 237 240 242 245 250 248 249 248
222 217 217 218 220 220 225 230 247 258 280 299 309 324 333 343 352 359 6 8 2 353 343 327 315 312 306 294 293 284 272 263 254 247 245 241 236 235 239 241 246 248 251 251 254 252 249
225 226 229 227 226 228 233 235 240 258 272 286 304 315 323 329 335 343 345 352 353 346 341 337 333 319 302 299 291 284 281 268 260 248 242 242 241 238 242 250 253 253 260 260 256 256 254
229 228 229 232 234 236 239 242 246 249 263 274 288 300 310 317 323 330 333 336 342 341 333 325 322 320 305 290 284 282 273 283 269 251 245 238 236 237 240 247 259 263 261 257 259 260 256
230 232 231 231 236 239 241 242 247 248 250 263 278 290 300 307 312 318 322 324 327 327 326 322 320 315 314 311 295 283 280 285 271 254 239 242 242 241 243 249 259 260 260 263 264 262 264
230 233 235 234 233 241 241 241 240 239 242 249 267 288 297 302 307 312 314 317 322 322 321 317 314 308 293 294 284 283 281 270 260 255 251 245 246 250 254 254 258 267 268 272 274 278 274
228 231 233 237 235 237 243 243 242 241 240 250 272 294 299 303 307 310 313 319 321 321 320 317 312 306 297 288 281 276 272 268 260 255 257 257 256 264 264 257 260 268 275 280 286 287 285
227 231 234 235 240 238 241 241 242 239 242 255 271 281 287 295 302 308 313 318 321 315 319 315 318 329 322 307 288 271 264 263 263 261 260 260 269 265 268 274 276 276 277 281 292 290 288
228 231 235 238 240 243 240 244 239 240 244 252 263 272 281 291 297 307 313 315 320 319 321 315 334 7 2 358 15 340 292 274 265 264 262 257 265 276 278 282 286 286 285 288 289 293 291
228 231 233 236 241 241 237 241 244 243 247 251 256 264 275 284 293 303 311 316 319 323 311 321 346 348 23 34 29 17 5 313 279 278 270 268 268 269 279 282 287 290 288 292 295 300 293
233 239 239 233 247 237 241 234 238 240 244 250 251 258 272 281 289 299 306 317 321 324 353 308 23 104 28 26 357 356 356 357 324 293 273 273 286 290 289 292 291 286 292 294 293 290 289
233 238 242 242 240 236 239 241 238 236 239 239 242 256 267 274 285 293 297 306 318 297 260 255 288 330 349 342 334 327 326 322 308 293 276 275 279 285 283 287 287 290 297 300 290 281 270
243 237 238 246 234 240 242 246 241 230 232 234 243 248 255 272 278 285 293 296 298 216 255 261 271 317 325 325 321 349 9 335 312 317 306 304 292 286 287 292 296 296 303 309 331 334 242
233 234 231 222 240 250 244 240 232 214 232 234 232 242 258 266 272 269 279 298 239 232 250 274 299 315 326 22 8 332 328 325 316 305 297 296 303 325 310 303 292 299 283 264 259 259 283
238 233 240 237 246 237 237 231 224 227 234 222 231 240 258 260 265 246 269 257 237 243 261 281 308 304 294 330 337 337 338 11 20 2 318 302 270 296 293 296 299 303 263 276 276 288 307
241 246 237 243 238 226 216 217 221 217 218 219 236 236 266 252 241 253 268 264 247 253 274 286 297 281 296 318 324 335 329 315 331 319 316 289 291 278 290 297 295 273 274 270 244 312 298
239 237 243 244 219 225 227 228 227 215 219 228 226 230 252 242 236 258 266 266 257 262 259 258 247 267 286 308 298 317 277 299 306 312 313 306 278 275 287 286 289 277 263 249 245 240 215
240 239 233 224 227 228 218 227 211 222 222 227 215 218 245 238 244 249 255 252 256 247 244 237 265 270 284 296 295 299 268 288 298 301 297 290 282 277 289 287 274 269 267 256 224 227 232
219 223 213 218 211 209 211 223 221 236 221 230 240 246 241 235 241 244 245 242 260 252 247 248 253 251 279 277 278 250 273 300 299 295 280 285 273 303 288 268 279 269 272 260 258 259 259
215 221 198 203 206 212 224 212 227 197 235 231 210 237 244 243 242 243 248 255 257 269 246 249 255 259 275 265 260 263 278 294 293 281 276 281 273 272 264 280 286 281 277 271 257 249 261
223 198 215 211 207 218 208 229 215 211 228 234 244 253 254 242 248 250 252 242 258 239 252 251 253 248 264 254 272 281 290 289 282 279 273 275 277 281 282 284 285 285 279 276 265 270 250
226 231 222 225 223 216 218 225 234 224 226 231 242 248 252 236 241 250 239 244 262 268 262 245 261 261 250 263 276 285 283 276 281 285 278 274 274 286 287 291 287 283 280 278 275 274 266
214 199 199 221 228 221 224 227 225 218 224 232 243 247 240 244 237 248 248 255 266 264 244 251 261 252 261 270 281 282 272 271 283 283 279 274 273 281 288 292 294 291 301 281 280 280 285
210 210 214 216 221 218 219 220 223 224 229 236 243 238 244 236 242 245 246 261 256 243 249 260 265 263 273 274 269 269 275 280 282 278 270 265 265 268 278 297 287 289 295 297 295 291 290
201 208 211 211 213 214 217 220 220 221 226 230 234 234 234 243 248 243 259 253 221 238 259 263 259 264 263 263 273 283 285 287 276 269 265 261 252 245 248 257 282 294 299 287 289 295 299
204 207 208 205 209 214 216 217 216 217 215 217 234 217 237 233 247 254 241 234 247 256 260 259 258 258 264 269 267 266 259 277 263 260 238 238 236 231 225 244 245 294 297 298 300 299 304
198 202 204 206 208 210 210 208 211 211 214 206 227 216 224 230 241 242 244 244 247 248 260 267 263 266 265 266 264 262 266 258 256 240 247 242 238 227 235 243 270 278 283 290 278 303 299
204 198 201 203 201 208 207 205 205 207 210 216 219 226 228 232 238 243 252 250 248 243 252 266 270 263 267 259 261 262 259 259 256 259 271 270 259 235 227 228 266 286 278 279 294 296 299
210 203 201 204 203 206 206 203 206 207 212 219 223 228 230 237 244 253 251 250 249 252 252 252 259 266 257 259 251 263 264 273 276 273 279 261 262 265 252 270 277 287 289 291 292 294 296